STARLINK-32466, 61859

Orbit data source: Space-Track

STARLINK-32466, 61859 is a payload satellite owned by SpaceX/Seattle (US) in LEO that was launched on Thu, 07 Nov 2024 UTC via an FALCON 9 launch vehicle from the Air Force Eastern Test Range (AFETR). Payload-class satellites include a variety of spacecraft equipped with specific instruments for various scientific and technological missions. These include communications satellites like Starlink; space stations such as the ISS; scientific satellites like the Hubble; Earth observation satellites from companies like Planet Labs, Umbra, and HawkEye 360; GPS; miniature CubeSats for education and research; and military/defense satellites.

Loading next visibility...
Identifier
61859, 2024-202Q
Orbit
LEO
Country
Flag of USUS
Related business
Manufacturer
SpaceX/Seattle
Mission
Operational Commercial Communications
Bus & Motor
STARLINK V2M, Unknown motor
Mass
730 kg wet, ~700 kg dry
Launch date (UTC)
2024-11-07 (1 year ago)
Launch vehicle
FALCON 9
Launch site
Air Force Eastern Test Range (AFETR)
Object type
Payload
Rocket body
Debris
Shape & HBR
Box + 2 Pan, 17.7 m
Radar Cross Section
33.884 m², Large (>1 m²)

Expand to show TLE details & history
Last TLE update: 14 hours ago

TLE from 14 hours ago
0 STARLINK-32466
1 61859U 24202Q   25353.23922952 -.00001652  00000-0 -50546-4 0  9991
2 61859  43.0015 332.3469 0000718 269.3455  90.7315 15.27568696 63036
Epoch: 2025-12-19T05:44Z
TLE epoch observation values (Epoch: 2025-12-19T05:44:29.430Z)
Latitude
0.00002°
Longitude
158.14106°
Altitude
482.865 km
Speed
7.626 km/s
True Right ascension
22h 09m 23s
True Declination
0° 00' 00"
Sunlit
Object was in daylight at epoch
Visualization orbit readout
Latitude
Unknown
Longitude
Unknown
Altitude
Unknown
Speed
Unknown
Apparent Right ascension
Unknown
Apparent Declination
Unknown
Sunlit
N/A
Visualization observer readout
Local Sidereal Time
18:14:50
Azimuth
Unknown
Elevation
Unknown
Doppler factor
Unknown
Orbital elements
Apogee altitude
485.521 km
Perigee altitude
484.535 km
Semi-major axis
6,863.165 km
Eccentricity
0.00007
Inclination
43.0015°
RAAN
332.3469°
Arg. of periapsis
269.3455°
True anomaly
90.73973°
Mean anomaly
90.7315°
Eccentric anomaly
90.73561°
Mean motion
3.8173 °/min
Orbital period
94.31 mins
BSTAR
-0.000050546
Loading maneuver chart data...
Computing Atmospheric mass density...
Loading historical data...
Loading historical data...
Loading historical data...
Loading historical data...
Loading historical data...
Loading historical data...
Loading historical data...

Documentation

Showing up to 5 results
|